| time (UTC) | temp C | wind direction | speed KPH | gust KPH | rain 1hr cm | rain 24hr cm | rain mn cm | humidity % | barometer mb |
| 20260904210004 | 18 | 192 | 0.0 | 9.7 | 0.00 | 0.25 | 0.15 | 69 | 1011.5 |
| 20260904205504 | 18 | 305 | 0.0 | 9.7 | 0.00 | 0.25 | 0.15 | 70 | 1011.5 |
| 20260904205004 | 18 | 174 | 1.6 | 9.7 | 0.00 | 0.25 | 0.15 | 67 | 1011.5 |
| 20260904204504 | 17 | 215 | 0.0 | 0.0 | 0.00 | 0.25 | 0.15 | 69 | 1011.5 |
| 20260904204004 | 17 | 341 | 0.0 | 0.0 | 0.00 | 0.25 | 0.15 | 71 | 1011.5 |
| 20260904203504 | 17 | 305 | 0.0 | 0.0 | 0.00 | 0.25 | 0.15 | 70 | 1011.5 |
| 20260904202504 | 17 | 35 | 0.0 | 0.0 | 0.00 | 0.25 | 0.15 | 71 | 1011.5 |
| 20260904202004 | 17 | 35 | 0.0 | 0.0 | 0.00 | 0.25 | 0.15 | 71 | 1011.5 |
| 20260904201507 | 17 | 86 | 0.0 | 14.5 | 0.00 | 0.25 | 0.15 | 72 | 1011.5 |
| 20260904201007 | 17 | 305 | 1.6 | 14.5 | 0.00 | 0.25 | 0.15 | 72 | 1011.5 |
| 20260904200506 | 17 | 274 | 1.6 | 14.5 | 0.00 | 0.25 | 0.15 | 73 | 1011.5 |
| 20260904200006 | 17 | 58 | 0.0 | 3.2 | 0.00 | 0.25 | 0.15 | 71 | 1011.5 |
| 20260904195507 | 17 | 220 | 0.0 | 0.0 | 0.00 | 0.25 | 0.15 | 70 | 1011.5 |
| 20260904195007 | 17 | 300 | 0.0 | 8.0 | 0.00 | 0.25 | 0.15 | 71 | 1011.5 |
| 20260904194507 | 17 | 136 | 0.0 | 8.0 | 0.00 | 0.25 | 0.15 | 71 | 1011.5 |
| 20260904194006 | 17 | 45 | 1.6 | 8.0 | 0.00 | 0.25 | 0.15 | 73 | 1012.5 |
| 20260904192506 | 17 | 35 | 0.0 | 9.7 | 0.00 | 0.25 | 0.15 | 74 | 1012.5 |
| 20260904191506 | 17 | 42 | 3.2 | 9.7 | 0.00 | 0.25 | 0.15 | 75 | 1012.5 |
| 20260904191006 | 17 | 35 | 3.2 | 0.0 | 0.00 | 0.25 | 0.15 | 76 | 1012.5 |
| 20260904190507 | 17 | 35 | 3.2 | 9.7 | 0.00 | 0.25 | 0.15 | 77 | 1012.5 |
| 20260904190006 | 17 | 35 | 3.2 | 9.7 | 0.00 | 0.25 | 0.15 | 78 | 1012.5 |
| 20260904185507 | 17 | 110 | 6.4 | 9.7 | 0.00 | 0.25 | 0.15 | 78 | 1012.5 |
| 20260904185007 | 17 | 187 | 0.0 | 9.7 | 0.00 | 0.25 | 0.15 | 79 | 1012.5 |
| 20260904184507 | 16 | 170 | 0.0 | 12.9 | 0.00 | 0.25 | 0.15 | 79 | 1012.5 |
| 20260904184006 | 16 | 107 | 3.2 | 12.9 | 0.00 | 0.25 | 0.15 | 80 | 1012.5 |
| 20260904183507 | 16 | 38 | 3.2 | 12.9 | 0.00 | 0.25 | 0.15 | 81 | 1012.5 |
| 20260904183006 | 16 | 316 | 8.0 | 12.9 | 0.00 | 0.38 | 0.15 | 82 | 1012.5 |
| 20260904182507 | 16 | 48 | 3.2 | 11.3 | 0.00 | 0.51 | 0.15 | 82 | 1011.5 |
| 20260904182006 | 16 | 80 | 4.8 | 11.3 | 0.00 | 0.51 | 0.15 | 82 | 1011.5 |
| 20260904181506 | 16 | 80 | 0.0 | 4.8 | 0.00 | 0.51 | 0.15 | 83 | 1011.5 |
| 20260904181007 | 16 | 68 | 3.2 | 8.0 | 0.00 | 0.51 | 0.15 | 84 | 1011.5 |
| 20260904180507 | 16 | 80 | 1.6 | 9.7 | 0.00 | 0.51 | 0.15 | 84 | 1011.5 |
| 20260904180007 | 16 | 126 | 4.8 | 11.3 | 0.00 | 0.51 | 0.15 | 84 | 1011.5 |
| 20260904175506 | 16 | 127 | 8.0 | 11.3 | 0.00 | 0.51 | 0.15 | 89 | 1011.5 |
| 20260904175007 | 16 | 46 | 4.8 | 11.3 | 0.00 | 0.51 | 0.15 | 89 | 1011.5 |
| 20260904174006 | 16 | 96 | 4.8 | 9.7 | 0.00 | 0.51 | 0.15 | 91 | 1011.5 |
| 20260904173506 | 15 | 115 | 8.0 | 9.7 | 0.00 | 0.51 | 0.15 | 92 | 1011.5 |
| 20260904173006 | 15 | 148 | 0.0 | 11.3 | 0.00 | 0.51 | 0.15 | 93 | 1011.5 |
| 20260904172506 | 15 | 64 | 4.8 | 12.9 | 0.00 | 0.51 | 0.15 | 93 | 1011.5 |
| 20260904172006 | 15 | 119 | 0.0 | 12.9 | 0.00 | 0.51 | 0.15 | 93 | 1011.5 |
| 20260904171007 | 15 | 45 | 3.2 | 9.7 | 0.00 | 0.51 | 0.15 | 95 | 1011.5 |
| 20260904170506 | 14 | 65 | 1.6 | 9.7 | 0.00 | 0.51 | 0.15 | 95 | 1011.5 |
| 20260904165007 | 14 | 110 | 3.2 | 11.3 | 0.00 | 0.51 | 0.15 | 96 | 1010.5 |
| 20260904164506 | 13 | 35 | 4.8 | 11.3 | 0.00 | 0.51 | 0.15 | 96 | 1010.5 |
| 20260904164006 | 13 | 109 | 3.2 | 4.8 | 0.00 | 0.51 | 0.15 | 96 | 1011.5 |
| 20260904163506 | 13 | 117 | 0.0 | 3.2 | 0.00 | 0.51 | 0.15 | 96 | 1011.5 |
| 20260904163006 | 13 | 49 | 0.0 | 8.0 | 0.00 | 0.51 | 0.15 | 96 | 1011.5 |
| 20260904162506 | 13 | 80 | 0.0 | 8.0 | 0.00 | 0.51 | 0.15 | 96 | 1010.5 |
| 20260904161506 | 12 | 80 | 0.0 | 4.8 | 0.00 | 0.51 | 0.15 | 97 | 1010.5 |
| 20260904161007 | 12 | 126 | 1.6 | 4.8 | 0.00 | 0.51 | 0.15 | 97 | 1010.5 |
| 20260904160506 | 12 | 35 | 0.0 | 3.2 | 0.00 | 0.51 | 0.15 | 97 | 1010.5 |
| 20260904160006 | 12 | 86 | 0.0 | 0.0 | 0.00 | 0.51 | 0.15 | 97 | 1010.5 |
| 20260904155507 | 12 | 58 | 0.0 | 8.0 | 0.00 | 0.51 | 0.15 | 97 | 1010.5 |
| 20260904155006 | 12 | 71 | 3.2 | 8.0 | 0.00 | 0.51 | 0.15 | 97 | 1010.5 |
| 20260904154507 | 12 | 35 | 0.0 | 3.2 | 0.00 | 0.51 | 0.15 | 97 | 1010.5 |
| 20260904154006 | 11 | 58 | 0.0 | 8.0 | 0.00 | 0.51 | 0.15 | 97 | 1010.5 |
| 20260904153507 | 11 | 67 | 1.6 | 8.0 | 0.00 | 0.51 | 0.15 | 97 | 1010.5 |
| 20260904152506 | 11 | 113 | 1.6 | 9.7 | 0.00 | 0.51 | 0.15 | 97 | 1010.5 |
| 20260904152006 | 11 | 102 | 1.6 | 9.7 | 0.00 | 0.51 | 0.15 | 97 | 1010.5 |
| 20260904151506 | 11 | 164 | 6.4 | 9.7 | 0.00 | 0.51 | 0.15 | 97 | 1010.5 |
| 20260904151006 | 11 | 205 | 0.0 | 8.0 | 0.00 | 0.51 | 0.15 | 97 | 1010.5 |
| 20260904150506 | 11 | 148 | 0.0 | 0.0 | 0.00 | 0.51 | 0.15 | 97 | 1010.5 |
| 20260904145006 | 11 | 35 | 0.0 | 0.0 | 0.00 | 0.51 | 0.15 | 97 | 1010.5 |
| 20260904144006 | 11 | 35 | 0.0 | 3.2 | 0.00 | 0.51 | 0.15 | 97 | 1010.5 |
| 20260904143506 | 11 | 35 | 0.0 | 3.2 | 0.00 | 0.51 | 0.15 | 97 | 1010.5 |
| 20260904143006 | 11 | 35 | 0.0 | 0.0 | 0.00 | 0.51 | 0.15 | 97 | 1010.5 |
| 20260904142005 | 11 | 35 | 0.0 | 4.8 | 0.00 | 0.61 | 0.15 | 96 | 1010.5 |
| 20260904141006 | 11 | 35 | 0.0 | 0.0 | 0.00 | 0.61 | 0.15 | 97 | 1011.5 |
| 20260904140505 | 11 | 35 | 0.0 | 0.0 | 0.00 | 0.61 | 0.15 | 96 | 1011.5 |
| 20260904140006 | 11 | 35 | 0.0 | 0.0 | 0.00 | 0.61 | 0.15 | 96 | 1011.5 |
| 20260904134506 | 11 | 35 | 0.0 | 0.0 | 0.00 | 0.61 | 0.15 | 96 | 1010.5 |
| 20260904134005 | 11 | 58 | 0.0 | 0.0 | 0.00 | 0.61 | 0.15 | 96 | 1010.5 |
| 20260904133505 | 11 | 35 | 0.0 | 0.0 | 0.00 | 0.61 | 0.15 | 96 | 1010.5 |
| 20260904133006 | 11 | 35 | 0.0 | 0.0 | 0.00 | 0.61 | 0.15 | 96 | 1010.5 |
| 20260904132506 | 11 | 35 | 0.0 | 8.0 | 0.00 | 0.61 | 0.15 | 96 | 1010.5 |
| 20260904132005 | 11 | 35 | 1.6 | 8.0 | 0.00 | 0.61 | 0.15 | 96 | 1010.5 |
| 20260904131506 | 11 | 326 | 0.0 | 4.8 | 0.00 | 0.61 | 0.15 | 96 | 1010.5 |
| 20260904131006 | 11 | 51 | 1.6 | 8.0 | 0.00 | 0.61 | 0.15 | 96 | 1010.5 |
| 20260904130506 | 11 | 147 | 1.6 | 8.0 | 0.00 | 0.61 | 0.15 | 96 | 1010.5 |
| 20260904130005 | 11 | 125 | 1.6 | 4.8 | 0.00 | 0.61 | 0.15 | 95 | 1010.5 |
| 20260904125506 | 11 | 148 | 3.2 | 4.8 | 0.00 | 0.61 | 0.15 | 95 | 1009.5 |
| 20260904125005 | 11 | 282 | 0.0 | 0.0 | 0.00 | 0.61 | 0.15 | 95 | 1009.5 |
| 20260904124506 | 11 | 282 | 0.0 | 0.0 | 0.00 | 0.61 | 0.15 | 95 | 1009.5 |
| 20260904124005 | 11 | 282 | 0.0 | 0.0 | 0.00 | 0.61 | 0.15 | 95 | 1009.5 |
| 20260904123506 | 11 | 282 | 0.0 | 0.0 | 0.00 | 0.61 | 0.15 | 94 | 1009.5 |
| 20260904122505 | 11 | 282 | 0.0 | 0.0 | 0.00 | 0.61 | 0.15 | 94 | 1009.5 |
| 20260904122006 | 11 | 282 | 0.0 | 0.0 | 0.00 | 0.61 | 0.15 | 93 | 1009.5 |
| 20260904121506 | 11 | 282 | 0.0 | 0.0 | 0.00 | 0.61 | 0.15 | 93 | 1009.5 |
| 20260904121006 | 11 | 282 | 0.0 | 3.2 | 0.00 | 0.61 | 0.15 | 93 | 1009.5 |
| 20260904120506 | 11 | 282 | 0.0 | 8.0 | 0.00 | 0.61 | 0.15 | 93 | 1009.5 |
| 20260904120006 | 11 | 305 | 3.2 | 8.0 | 0.00 | 0.61 | 0.15 | 93 | 1009.5 |
| 20260904115506 | 11 | 137 | 1.6 | 8.0 | 0.00 | 0.61 | 0.15 | 93 | 1009.5 |
| 20260904114005 | 11 | 42 | 0.0 | 8.0 | 0.15 | 0.61 | 0.15 | 92 | 1009.5 |
| 20260904113505 | 11 | 192 | 0.0 | 9.7 | 0.15 | 0.61 | 0.15 | 92 | 1009.5 |
| 20260904113006 | 11 | 153 | 0.0 | 9.7 | 0.15 | 0.61 | 0.15 | 92 | 1009.5 |
| 20260904112005 | 11 | 305 | 0.0 | 3.2 | 0.15 | 0.61 | 0.15 | 91 | 1009.5 |
| 20260904111506 | 11 | 305 | 0.0 | 3.2 | 0.15 | 0.61 | 0.15 | 91 | 1009.5 |
| 20260904111006 | 11 | 305 | 1.6 | 9.7 | 0.15 | 0.61 | 0.15 | 91 | 1009.5 |
| 20260904110505 | 11 | 311 | 1.6 | 9.7 | 0.15 | 0.61 | 0.15 | 91 | 1009.5 |
| 20260904110005 | 11 | 100 | 1.6 | 11.3 | 0.15 | 0.61 | 0.15 | 91 | 1009.5 |
| 20260904105506 | 11 | 131 | 1.6 | 16.1 | 0.15 | 0.61 | 0.15 | 91 | 1009.5 |
| 20260904105006 | 11 | 113 | 4.8 | 16.1 | 0.15 | 0.61 | 0.15 | 91 | 1009.5 |
| 20260904104006 | 11 | 305 | 0.0 | 0.0 | 0.00 | 0.48 | 0.00 | 91 | 1009.5 |
| 20260904103506 | 11 | 305 | 0.0 | 0.0 | 0.00 | 0.48 | 0.00 | 91 | 1009.5 |
| 20260904103005 | 11 | 305 | 0.0 | 0.0 | 0.00 | 0.48 | 0.00 | 91 | 1009.5 |
| 20260904102505 | 11 | 305 | 0.0 | 0.0 | 0.00 | 0.48 | 0.00 | 91 | 1009.5 |
| 20260904102006 | 11 | 305 | 0.0 | 0.0 | 0.00 | 0.48 | 0.00 | 91 | 1009.5 |
| 20260904101505 | 11 | 305 | 0.0 | 0.0 | 0.00 | 0.48 | 0.00 | 91 | 1009.5 |
| 20260904101005 | 11 | 305 | 0.0 | 0.0 | 0.00 | 0.48 | 0.00 | 91 | 1009.5 |
| 20260904100505 | 11 | 305 | 0.0 | 0.0 | 0.00 | 0.48 | 0.00 | 91 | 1009.5 |
| 20260904100005 | 11 | 27 | 0.0 | 0.0 | 0.00 | 0.48 | 0.00 | 91 | 1009.5 |
| 20260904095505 | 11 | 215 | 0.0 | 0.0 | 0.00 | 0.48 | 0.00 | 91 | 1008.5 |
| 20260904095006 | 11 | 35 | 0.0 | 0.0 | 0.00 | 0.48 | 0.00 | 92 | 1008.5 |
| 20260904094506 | 11 | 35 | 0.0 | 0.0 | 0.00 | 0.48 | 0.00 | 92 | 1008.5 |
| 20260904094005 | 12 | 35 | 0.0 | 0.0 | 0.00 | 0.48 | 0.00 | 91 | 1008.5 |
| 20260904093506 | 12 | 35 | 0.0 | 3.2 | 0.00 | 0.48 | 0.00 | 91 | 1008.5 |
| 20260904093005 | 12 | 35 | 0.0 | 3.2 | 0.00 | 0.48 | 0.00 | 91 | 1008.5 |
| 20260904092005 | 12 | 35 | 0.0 | 4.8 | 0.00 | 0.48 | 0.00 | 92 | 1008.5 |
| 20260904091505 | 12 | 35 | 1.6 | 4.8 | 0.00 | 0.48 | 0.00 | 92 | 1008.5 |
| 20260904091005 | 12 | 282 | 0.0 | 3.2 | 0.00 | 0.48 | 0.00 | 92 | 1008.5 |
| 20260904090505 | 11 | 282 | 0.0 | 8.0 | 0.00 | 0.48 | 0.00 | 93 | 1008.5 |
| 20260904090006 | 11 | 288 | 0.0 | 8.0 | 0.00 | 0.48 | 0.00 | 93 | 1008.5 |
| 20260904085005 | 11 | 305 | 0.0 | 0.0 | 0.00 | 0.48 | 0.00 | 93 | 1008.5 |
| 20260904084505 | 11 | 305 | 0.0 | 0.0 | 0.00 | 0.48 | 0.00 | 93 | 1008.5 |
| 20260904084005 | 11 | 305 | 0.0 | 0.0 | 0.00 | 0.48 | 0.00 | 93 | 1009.5 |
| 20260904083505 | 12 | 305 | 0.0 | 0.0 | 0.00 | 0.48 | 0.00 | 92 | 1009.5 |
| 20260904083005 | 12 | 305 | 0.0 | 0.0 | 0.00 | 0.48 | 0.00 | 92 | 1009.5 |
| 20260904082005 | 12 | 102 | 0.0 | 0.0 | 0.00 | 0.48 | 0.00 | 92 | 1008.5 |
| 20260904081005 | 12 | 63 | 0.0 | 3.2 | 0.00 | 0.48 | 0.00 | 93 | 1009.5 |
| 20260904080505 | 12 | 176 | 0.0 | 0.0 | 0.00 | 0.48 | 0.00 | 93 | 1009.5 |
| 20260904080005 | 12 | 35 | 0.0 | 0.0 | 0.00 | 0.48 | 0.00 | 93 | 1009.5 |
| 20260904075505 | 12 | 35 | 0.0 | 8.0 | 0.00 | 0.48 | 0.00 | 93 | 1008.5 |
| 20260904074505 | 12 | 99 | 4.8 | 9.7 | 0.00 | 0.58 | 0.00 | 94 | 1008.5 |
| 20260904074005 | 12 | 102 | 0.0 | 3.2 | 0.00 | 0.58 | 0.00 | 94 | 1008.5 |
| 20260904073005 | 12 | 68 | 0.0 | 0.0 | 0.00 | 0.58 | 0.00 | 94 | 1008.5 |
| 20260904072006 | 12 | 91 | 0.0 | 0.0 | 0.00 | 0.58 | 0.00 | 94 | 1008.5 |
| 20260904071505 | 12 | 84 | 0.0 | 0.0 | 0.00 | 0.58 | 0.00 | 94 | 1008.5 |
| 20260904070505 | 12 | 102 | 0.0 | 0.0 | 0.00 | 0.58 | 0.00 | 94 | 1008.5 |
| 20260904070006 | 12 | 102 | 0.0 | 0.0 | 0.00 | 0.58 | 0.00 | 94 | 1008.5 |
| 20260904065505 | 12 | 102 | 0.0 | 0.0 | 0.00 | 0.58 | 0.58 | 93 | 1008.5 |
| 20260904065005 | 12 | 102 | 0.0 | 0.0 | 0.00 | 0.58 | 0.58 | 93 | 1008.5 |
| 20260904064505 | 12 | 102 | 0.0 | 0.0 | 0.00 | 0.58 | 0.58 | 93 | 1008.5 |
| 20260904064005 | 12 | 102 | 0.0 | 0.0 | 0.00 | 0.58 | 0.58 | 93 | 1009.5 |
| 20260904063505 | 12 | 102 | 0.0 | 0.0 | 0.00 | 0.58 | 0.58 | 93 | 1009.5 |
| 20260904062005 | 12 | 102 | 0.0 | 0.0 | 0.00 | 0.58 | 0.58 | 92 | 1008.5 |
| 20260904061504 | 12 | 102 | 0.0 | 0.0 | 0.00 | 0.58 | 0.58 | 92 | 1008.5 |
| 20260904061004 | 12 | 102 | 0.0 | 0.0 | 0.00 | 0.58 | 0.58 | 92 | 1009.5 |
| 20260904055504 | 12 | 102 | 0.0 | 0.0 | 0.00 | 0.58 | 0.58 | 92 | 1009.5 |
| 20260904054505 | 12 | 109 | 0.0 | 0.0 | 0.00 | 0.58 | 0.58 | 92 | 1009.5 |
| 20260904054005 | 12 | 148 | 0.0 | 0.0 | 0.00 | 0.58 | 0.58 | 92 | 1009.5 |
| 20260904053505 | 12 | 148 | 0.0 | 0.0 | 0.00 | 0.58 | 0.58 | 92 | 1009.5 |
| 20260904053005 | 12 | 96 | 0.0 | 0.0 | 0.00 | 0.58 | 0.58 | 91 | 1009.5 |
| 20260904052504 | 12 | 129 | 0.0 | 0.0 | 0.00 | 0.58 | 0.58 | 92 | 1009.5 |
| 20260904052005 | 12 | 165 | 0.0 | 0.0 | 0.00 | 0.58 | 0.58 | 92 | 1009.5 |
| 20260904051505 | 12 | 144 | 0.0 | 0.0 | 0.00 | 0.58 | 0.58 | 91 | 1009.5 |
| 20260904051005 | 12 | 164 | 0.0 | 0.0 | 0.00 | 0.58 | 0.58 | 91 | 1009.5 |
| 20260904050505 | 12 | 148 | 0.0 | 3.2 | 0.00 | 0.58 | 0.58 | 92 | 1009.5 |
| 20260904050005 | 12 | 125 | 0.0 | 4.8 | 0.00 | 0.58 | 0.58 | 92 | 1009.5 |
| 20260904045505 | 12 | 139 | 0.0 | 4.8 | 0.00 | 0.58 | 0.58 | 92 | 1009.5 |
| 20260904045005 | 12 | 170 | 0.0 | 4.8 | 0.00 | 0.58 | 0.58 | 92 | 1009.5 |
| 20260904044505 | 12 | 192 | 0.0 | 0.0 | 0.00 | 0.58 | 0.58 | 92 | 1009.5 |
| 20260904044005 | 12 | 192 | 0.0 | 0.0 | 0.00 | 0.58 | 0.58 | 92 | 1009.5 |
| 20260904043504 | 12 | 192 | 0.0 | 3.2 | 0.00 | 0.58 | 0.58 | 92 | 1009.5 |
| 20260904043005 | 12 | 192 | 0.0 | 3.2 | 0.00 | 0.58 | 0.58 | 93 | 1009.5 |
| 20260904042005 | 12 | 282 | 0.0 | 4.8 | 0.00 | 0.58 | 0.58 | 93 | 1009.5 |
| 20260904041005 | 12 | 282 | 0.0 | 0.0 | 0.00 | 0.58 | 0.58 | 93 | 1009.5 |
| 20260904040505 | 12 | 282 | 0.0 | 3.2 | 0.00 | 0.58 | 0.58 | 93 | 1009.5 |
| 20260904040004 | 12 | 282 | 0.0 | 3.2 | 0.00 | 0.58 | 0.58 | 93 | 1009.5 |
| 20260904035505 | 12 | 35 | 0.0 | 3.2 | 0.00 | 0.58 | 0.58 | 93 | 1009.5 |
| 20260904035005 | 12 | 102 | 0.0 | 3.2 | 0.00 | 0.58 | 0.58 | 93 | 1009.5 |
| 20260904034504 | 12 | 103 | 0.0 | 0.0 | 0.00 | 0.58 | 0.58 | 93 | 1009.5 |
| 20260904033505 | 12 | 131 | 0.0 | 0.0 | 0.00 | 0.58 | 0.58 | 93 | 1008.5 |
| 20260904033004 | 12 | 80 | 0.0 | 0.0 | 0.00 | 0.58 | 0.58 | 93 | 1008.5 |
| 20260904032505 | 12 | 80 | 0.0 | 0.0 | 0.00 | 0.58 | 0.58 | 93 | 1008.5 |
| 20260904032006 | 12 | 80 | 0.0 | 0.0 | 0.00 | 0.58 | 0.58 | 93 | 1008.5 |
| 20260904031504 | 12 | 80 | 0.0 | 0.0 | 0.00 | 0.58 | 0.58 | 93 | 1008.5 |
| 20260904031005 | 12 | 80 | 0.0 | 0.0 | 0.00 | 0.58 | 0.58 | 92 | 1008.5 |
| 20260904030504 | 12 | 80 | 0.0 | 0.0 | 0.00 | 0.58 | 0.58 | 92 | 1008.5 |
| 20260904030005 | 12 | 80 | 0.0 | 0.0 | 0.00 | 0.58 | 0.58 | 92 | 1008.5 |
| 20260904025505 | 12 | 80 | 0.0 | 0.0 | 0.00 | 0.58 | 0.58 | 92 | 1008.5 |
| 20260904025004 | 12 | 80 | 0.0 | 0.0 | 0.00 | 0.58 | 0.58 | 92 | 1008.5 |
| 20260904024505 | 12 | 80 | 0.0 | 3.2 | 0.00 | 0.58 | 0.58 | 92 | 1008.5 |
| 20260904024004 | 12 | 80 | 1.6 | 4.8 | 0.00 | 0.58 | 0.58 | 92 | 1008.5 |
| 20260904023505 | 12 | 95 | 1.6 | 9.7 | 0.00 | 0.58 | 0.58 | 92 | 1008.5 |
| 20260904022007 | 13 | 121 | 3.2 | 9.7 | 0.00 | 0.58 | 0.58 | 92 | 1008.5 |
| 20260904021505 | 13 | 119 | 1.6 | 3.2 | 0.00 | 0.58 | 0.58 | 92 | 1008.5 |
| 20260904021005 | 13 | 125 | 1.6 | 9.7 | 0.00 | 0.58 | 0.58 | 92 | 1008.5 |
| 20260904020004 | 13 | 128 | 1.6 | 9.7 | 0.00 | 0.58 | 0.58 | 92 | 1008.5 |
| 20260904015504 | 13 | 38 | 0.0 | 0.0 | 0.00 | 0.58 | 0.58 | 92 | 1008.5 |
| 20260904015005 | 13 | 43 | 0.0 | 0.0 | 0.00 | 0.58 | 0.58 | 92 | 1008.5 |
| 20260904014504 | 13 | 102 | 0.0 | 0.0 | 0.00 | 0.58 | 0.58 | 92 | 1008.5 |
| 20260904014004 | 13 | 98 | 0.0 | 8.0 | 0.00 | 0.58 | 0.58 | 92 | 1008.5 |
| 20260904013504 | 13 | 102 | 3.2 | 8.0 | 0.00 | 0.58 | 0.58 | 92 | 1008.5 |
| 20260904013005 | 13 | 118 | 3.2 | 9.7 | 0.00 | 0.58 | 0.58 | 92 | 1008.5 |
| 20260904012505 | 13 | 134 | 6.4 | 16.1 | 0.00 | 0.58 | 0.58 | 92 | 1008.5 |
| 20260904012005 | 13 | 125 | 4.8 | 16.1 | 0.00 | 0.58 | 0.58 | 92 | 1008.5 |
| 20260904011504 | 13 | 157 | 4.8 | 12.9 | 0.00 | 0.58 | 0.58 | 92 | 1008.5 |
| 20260904011005 | 13 | 81 | 1.6 | 9.7 | 0.00 | 0.58 | 0.58 | 92 | 1008.5 |
| 20260904010504 | 13 | 124 | 4.8 | 9.7 | 0.00 | 0.58 | 0.58 | 91 | 1008.5 |
| 20260904010004 | 13 | 282 | 0.0 | 0.0 | 0.00 | 0.58 | 0.58 | 91 | 1008.5 |
| 20260904005504 | 13 | 35 | 0.0 | 3.2 | 0.00 | 0.58 | 0.58 | 91 | 1008.5 |
| 20260904005004 | 13 | 192 | 0.0 | 3.2 | 0.00 | 0.58 | 0.58 | 91 | 1008.5 |
| 20260904004504 | 13 | 179 | 0.0 | 3.2 | 0.00 | 0.58 | 0.58 | 91 | 1008.5 |
| 20260904004004 | 13 | 90 | 0.0 | 3.2 | 0.00 | 0.58 | 0.58 | 91 | 1008.5 |
| 20260904003504 | 13 | 208 | 0.0 | 4.8 | 0.00 | 0.58 | 0.58 | 91 | 1008.5 |
| 20260904002504 | 13 | 90 | 3.2 | 9.7 | 0.00 | 0.58 | 0.58 | 92 | 1008.5 |
| 20260904002004 | 13 | 149 | 1.6 | 9.7 | 0.00 | 0.58 | 0.58 | 92 | 1008.5 |
| 20260904001504 | 13 | 193 | 1.6 | 9.7 | 0.13 | 0.58 | 0.58 | 92 | 1008.5 |
| 20260904001004 | 13 | 224 | 0.0 | 4.8 | 0.13 | 0.58 | 0.58 | 91 | 1008.5 |
| 20260904000504 | 13 | 260 | 3.2 | 4.8 | 0.13 | 0.58 | 0.58 | 91 | 1008.5 |
| 20260904000004 | 13 | 238 | 0.0 | 3.2 | 0.13 | 0.58 | 0.58 | 91 | 1008.5 |
| 20260903235504 | 13 | 248 | 1.6 | 8.0 | 0.13 | 0.58 | 0.58 | 90 | 1008.5 |
| 20260903234504 | 12 | 190 | 1.6 | 8.0 | 0.13 | 0.74 | 0.58 | 90 | 1008.5 |
| 20260903234004 | 12 | 260 | 1.6 | 4.8 | 0.13 | 0.86 | 0.58 | 88 | 1008.5 |
| 20260903233504 | 12 | 162 | 0.0 | 9.7 | 0.13 | 0.86 | 0.58 | 88 | 1008.5 |
| 20260903233003 | 12 | 140 | 1.6 | 9.7 | 0.13 | 0.86 | 0.58 | 88 | 1008.5 |
| 20260903232004 | 13 | 274 | 4.8 | 9.7 | 0.13 | 0.97 | 0.58 | 85 | 1009.5 |
| 20260903231504 | 13 | 249 | 3.2 | 9.7 | 0.00 | 0.86 | 0.48 | 84 | 1009.5 |
| 20260903230504 | 13 | 260 | 0.0 | 12.9 | 0.00 | 0.86 | 0.48 | 83 | 1009.5 |
| 20260903230004 | 13 | 233 | 3.2 | 12.9 | 0.00 | 0.86 | 0.48 | 81 | 1009.5 |
| 20260903225504 | 14 | 229 | 1.6 | 12.9 | 0.00 | 0.86 | 0.48 | 80 | 1008.5 |
| 20260903225004 | 15 | 282 | 1.6 | 12.9 | 0.00 | 0.86 | 0.48 | 78 | 1008.5 |
| 20260903224504 | 15 | 260 | 4.8 | 11.3 | 0.00 | 0.86 | 0.48 | 77 | 1008.5 |
| 20260903224004 | 16 | 282 | 0.0 | 11.3 | 0.00 | 0.86 | 0.48 | 77 | 1008.5 |
| 20260903223504 | 16 | 280 | 3.2 | 11.3 | 0.00 | 0.86 | 0.48 | 77 | 1008.5 |
| 20260903222504 | 16 | 258 | 3.2 | 9.7 | 0.00 | 0.86 | 0.48 | 76 | 1008.5 |
| 20260903222003 | 16 | 231 | 1.6 | 9.7 | 0.00 | 0.86 | 0.48 | 76 | 1008.5 |
| 20260903221503 | 16 | 257 | 3.2 | 9.7 | 0.00 | 0.86 | 0.48 | 75 | 1008.5 |
| 20260903220504 | 16 | 246 | 3.2 | 12.9 | 0.00 | 0.86 | 0.48 | 76 | 1008.5 |
| 20260903215504 | 15 | 145 | 4.8 | 20.9 | 0.00 | 0.86 | 0.48 | 75 | 1008.5 |
| 20260903215004 | 15 | 199 | 3.2 | 20.9 | 0.00 | 0.86 | 0.48 | 76 | 1008.5 |
| 20260903214505 | 15 | 145 | 9.7 | 20.9 | 0.00 | 0.86 | 0.48 | 77 | 1008.5 |
| 20260903214004 | 15 | 203 | 4.8 | 11.3 | 0.00 | 0.86 | 0.48 | 77 | 1008.5 |
| 20260903213504 | 15 | 233 | 6.4 | 11.3 | 0.00 | 0.86 | 0.48 | 77 | 1008.5 |
| 20260903212504 | 15 | 207 | 8.0 | 25.7 | 0.00 | 0.86 | 0.48 | 78 | 1009.5 |
| 20260903212004 | 15 | 162 | 11.3 | 25.7 | 0.00 | 0.86 | 0.48 | 78 | 1009.5 |
| 20260903211504 | 15 | 179 | 14.5 | 25.7 | 0.00 | 0.86 | 0.48 | 77 | 1009.5 |
| 20260903211003 | 15 | 194 | 9.7 | 25.7 | 0.00 | 0.86 | 0.48 | 77 | 1008.5 |
| 20260903210504 | 15 | 140 | 11.3 | 24.1 | 0.00 | 0.86 | 0.48 | 77 | 1008.5 |